Hattiesburg, MS

6:22 PM CDT on July 26, 2016 (GMT -0500)
Chain Municipal

Weather History for KHBG - September, 2013

Change the Weather History Date:

Saturday, September 21, 2013

  Actual Average Record
Temperature  
Mean Temperature 75 °F 75 °F  
Max Temperature 79 °F 86 °F 102 °F (1997)
Min Temperature 70 °F 64 °F 48 °F (1962)
Degree Days  
Heating Degree Days 0 0  
Month to date heating degree days 0 0  
Since 1 July heating degree days 0 0  
Cooling Degree Days 10 10  
Month to date cooling degree days 339 275  
Year to date cooling degree days 2118 2146  
Growing Degree Days 24 (Base 50)    
Moisture  
Dew Point 71 °F    
Average Humidity 88    
Maximum Humidity 97    
Minimum Humidity 79    
Precipitation  
Precipitation 1.57 in 0.12 in 1.82 in (1979)
Month to date precipitation 3.91 2.97  
Year to date precipitation 56.08 45.13  
Sea Level Pressure  
Sea Level Pressure 29.80 in    
Wind  
Wind Speed 3 mph (WNW)    
Max Wind Speed 16 mph    
Max Gust Speed 23 mph    
Visibility 7 miles    
Events Rain , Thunderstorm    
T = Trace of Precipitation, MM = Missing Value Source: NWS Daily Summary

Daily Weather History Graph

Daily Weather History Graph

Search for Another Location

Airport or City:

Trip Planner

Search our weather history database for the weather conditions in past years. The results will help you decide how hot, cold, wet, or windy it might be!

Date:

Astronomy

Sep. 21, 2013 Rise Set
Actual Time 6:44 AM CDT 6:54 PM CDT
Civil Twilight 6:20 AM CDT 7:18 PM CDT
Nautical Twilight 5:52 AM CDT 7:46 PM CDT
Astronomical Twilight 5:23 AM CDT 8:15 PM CDT
Moon 8:18 PM CDT (9/21) 8:51 AM CDT (9/21)
Length of Visible Light 12h 58m
Length of Day
12h 09m
Waning Gibbous, 94% of the Moon is Illuminated
Sep 21
Waning Gibbous
Sep 26
Last Quarter
Oct 4
New
Oct 11
First Quarter
Oct 18
Full

Hourly Weather History & Observations

Time (CDT) Temp. Dew Point Humidity Pressure Visibility Wind Dir Wind Speed Gust Speed Precip Events Conditions
12:53 AM 75.9 °F 73.9 °F 94% 29.83 in 10.0 mi South 3.5 mph - N/A   Clear
1:53 AM 77.0 °F 73.9 °F 90% 29.81 in 10.0 mi South 4.6 mph - N/A   Clear
2:53 AM 77.0 °F 73.9 °F 90% 29.80 in 10.0 mi SE 3.5 mph - 0.00 in Rain Light Rain
3:53 AM 77.0 °F 73.9 °F 90% 29.79 in 10.0 mi Calm Calm - 0.01 in Rain Light Rain
4:53 AM 75.9 °F 73.9 °F 94% 29.81 in 7.0 mi Calm Calm - 0.06 in Rain Rain
5:43 AM 75.2 °F 73.4 °F 94% 29.83 in 1.8 mi WSW 9.2 mph - 0.17 in Rain Heavy Rain
5:47 AM 75.2 °F 73.4 °F 94% 29.83 in 1.0 mi WSW 13.8 mph 21.9 mph 0.34 in Rain Heavy Rain
5:53 AM 75.0 °F 71.1 °F 87% 29.82 in 1.2 mi West 8.1 mph 21.9 mph 0.38 in Rain Heavy Rain
5:56 AM 75.2 °F 71.6 °F 89% 29.83 in 2.0 mi West 9.2 mph 20.7 mph 0.01 in Rain , Thunderstorm Rain
6:04 AM 75.2 °F 71.6 °F 89% 29.83 in 4.0 mi West 11.5 mph - 0.04 in Rain , Thunderstorm Heavy Rain
6:11 AM 75.2 °F 71.6 °F 89% 29.82 in 3.0 mi West 10.4 mph - 0.08 in Rain Heavy Rain
6:18 AM 73.4 °F 71.6 °F 94% 29.82 in 1.8 mi WNW 9.2 mph - 0.21 in Rain Heavy Rain
6:28 AM 73.4 °F 71.6 °F 94% 29.81 in 3.0 mi Calm Calm - 0.25 in Rain Heavy Rain
6:53 AM 73.0 °F 70.0 °F 90% 29.81 in 5.0 mi SW 3.5 mph - 0.31 in Rain Rain
7:41 AM 73.4 °F 71.6 °F 94% 29.83 in 2.5 mi WSW 3.5 mph - 0.15 in Rain Heavy Rain
7:50 AM 73.4 °F 71.6 °F 94% 29.84 in 3.0 mi WSW 3.5 mph - 0.19 in Rain Heavy Rain
7:53 AM 73.0 °F 71.1 °F 93% 29.83 in 3.0 mi Calm Calm - 0.19 in Rain Heavy Rain
8:02 AM 73.4 °F 71.6 °F 94% 29.84 in 2.5 mi West 4.6 mph - 0.03 in Rain Rain
8:10 AM 73.4 °F 71.6 °F 94% 29.84 in 1.0 mi WSW 3.5 mph - 0.12 in Rain Heavy Rain
8:18 AM 73.4 °F 71.6 °F 94% 29.84 in 0.8 mi SSW 3.5 mph - 0.23 in Rain Heavy Rain
8:31 AM 73.4 °F 71.6 °F 94% 29.83 in 1.8 mi Calm Calm - 0.30 in Rain Heavy Rain
8:35 AM 73.4 °F 71.6 °F 94% 29.82 in 3.0 mi Calm Calm - 0.31 in Rain Rain
8:53 AM 73.9 °F 71.1 °F 91% 29.81 in 5.0 mi SE 3.5 mph - 0.33 in Rain Rain
9:53 AM 75.0 °F 72.0 °F 90% 29.82 in 10.0 mi Calm Calm - 0.03 in Rain Light Rain
10:10 AM 75.2 °F 73.4 °F 94% 29.83 in 10.0 mi South 3.5 mph - 0.00 in Rain Light Rain
10:24 AM 75.2 °F 73.4 °F 94% 29.83 in 10.0 mi SSE 4.6 mph - 0.00 in Rain Light Rain
10:43 AM 75.2 °F 73.4 °F 94% 29.82 in 10.0 mi SSE 4.6 mph - 0.01 in Rain Light Rain
10:53 AM 75.9 °F 73.0 °F 91% 29.81 in 10.0 mi South 5.8 mph - 0.01 in Rain Light Rain
11:03 AM 75.2 °F 73.4 °F 94% 29.82 in 10.0 mi South 8.1 mph - 0.00 in Rain Light Rain
11:53 AM 75.9 °F 73.0 °F 91% 29.80 in 10.0 mi SSW 4.6 mph - 0.00 in Rain Light Rain
12:53 PM 78.1 °F 73.0 °F 84% 29.79 in 10.0 mi Variable 3.5 mph - 0.00 in   Mostly Cloudy
1:44 PM 78.8 °F 71.6 °F 78% 29.78 in 10.0 mi WSW 6.9 mph - 0.00 in   Overcast
1:53 PM 79.0 °F 73.0 °F 82% 29.77 in 10.0 mi West 6.9 mph - 0.00 in   Overcast
2:04 PM 78.8 °F 71.6 °F 78% 29.78 in 10.0 mi West 5.8 mph - N/A   Overcast
2:53 PM 79.0 °F 72.0 °F 79% 29.76 in 10.0 mi West 3.5 mph - N/A   Overcast
3:15 PM 75.2 °F 71.6 °F 89% 29.77 in 10.0 mi North 9.2 mph 21.9 mph 0.01 in Rain Light Rain
3:26 PM 73.4 °F 69.8 °F 88% 29.77 in 10.0 mi North 9.2 mph 17.3 mph 0.01 in Rain Light Rain
3:33 PM 73.4 °F 69.8 °F 88% 29.77 in 6.0 mi North 11.5 mph - 0.03 in Rain Rain
3:53 PM 72.0 °F 70.0 °F 93% 29.77 in 3.0 mi North 8.1 mph - 0.09 in Rain Rain
4:02 PM 71.6 °F 69.8 °F 94% 29.78 in 6.0 mi NNE 10.4 mph 17.3 mph 0.01 in Rain Rain
4:09 PM 71.6 °F 69.8 °F 94% 29.77 in 7.0 mi North 6.9 mph - 0.02 in Rain Rain
4:12 PM 71.6 °F 69.8 °F 94% 29.77 in 6.0 mi North 9.2 mph - 0.02 in Rain Light Rain
4:32 PM 71.6 °F 69.8 °F 94% 29.77 in 10.0 mi North 8.1 mph - 0.03 in Rain Light Rain
4:35 PM 71.6 °F 69.8 °F 94% 29.77 in 10.0 mi North 6.9 mph - 0.03 in Rain Light Rain
4:53 PM 72.0 °F 69.1 °F 91% 29.76 in 10.0 mi North 4.6 mph - 0.03 in Rain Light Rain
5:53 PM 71.1 °F 69.1 °F 93% 29.77 in 10.0 mi North 5.8 mph - 0.02 in Rain Light Rain
6:48 PM 71.6 °F 69.8 °F 94% 29.78 in 10.0 mi North 5.8 mph - 0.01 in Rain Light Rain
6:53 PM 71.1 °F 69.1 °F 93% 29.78 in 10.0 mi North 6.9 mph - 0.02 in Rain Rain
7:05 PM 71.6 °F 69.8 °F 94% 29.79 in 10.0 mi North 5.8 mph - 0.00 in Rain Light Rain
7:53 PM 71.1 °F 68.0 °F 90% 29.79 in 5.0 mi NNE 4.6 mph - 0.01 in Rain Light Rain
8:53 PM 70.0 °F 68.0 °F 93% 29.80 in 8.0 mi NNE 3.5 mph - 0.06 in Rain Rain
9:53 PM 71.1 °F 68.0 °F 90% 29.81 in 10.0 mi Calm Calm - 0.01 in   Overcast
10:53 PM 71.1 °F 68.0 °F 90% 29.81 in 10.0 mi Calm Calm - 0.01 in   Overcast
11:53 PM 71.1 °F 69.1 °F 93% 29.81 in 10.0 mi Calm Calm - N/A   Overcast